When you browse on this site, cookies collect data to enhance your experience and personalize the content and advertising you see.
Visit our Privacy Policy to learn more. By continuing to use the site, you agree to this use of cookies and data.
  • In Slovakia
  • List of Countries
  • For 7 days
  • Water Temperature
  • Satellite Maps
  • Weather Map
  • Weather Widgets
  • user-avatar
    Login

    Hourly Weather Ordino

    Today, 21 January, Monday

    Time Temperature Precipitation Wind Pressure Humidity
    00:00 -4°C° 0 mm 2 mps 628 mmHg 90%
    01:00 -4°C° 0.1 mm 2 mps 627 mmHg 89%
    02:00 -4°C° 0.1 mm 2 mps 627 mmHg 89%
    03:00 -4°C° 0.1 mm 2 mps 627 mmHg 89%
    04:00 -4°C° 0.1 mm 2 mps 627 mmHg 89%
    05:00 -5°C° 0.1 mm 2 mps 628 mmHg 89%
    06:00 -5°C° 0.1 mm 2 mps 628 mmHg 89%
    07:00 -5°C° 0.2 mm 3 mps 628 mmHg 85%
    08:00 -5°C° 0.2 mm 3 mps 628 mmHg 82%
    09:00 -5°C° 0.2 mm 3 mps 629 mmHg 79%
    10:00 -4°C° 0.1 mm 3 mps 629 mmHg 74%
    11:00 -2°C° 0.1 mm 3 mps 629 mmHg 70%
    12:00 -2°C° 0.1 mm 3 mps 630 mmHg 66%
    13:00 -2°C° 0.1 mm 3 mps 629 mmHg 66%
    14:00 -2°C° 0.1 mm 3 mps 629 mmHg 67%
    15:00 -2°C° 0.1 mm 3 mps 629 mmHg 67%
    16:00 -5°C° 0 mm 3 mps 629 mmHg 73%
    17:00 -5°C° 0 mm 2 mps 628 mmHg 79%
    18:00 -7°C° 0 mm 2 mps 628 mmHg 85%
    19:00 -7°C° 0 mm 2 mps 628 mmHg 85%
    20:00 -8°C° 0 mm 2 mps 628 mmHg 85%
    21:00 -8°C° 0 mm 2 mps 628 mmHg 85%
    22:00 -8°C° 0 mm 2 mps 628 mmHg 83%
    23:00 -9°C° 0 mm 2 mps 628 mmHg 81%

    Tomorrow, 22 January, Tuesday

    Time Temperature Precipitation Wind Pressure Humidity
    00:00 -9°C° 0 mm 2 mps 627 mmHg 78%
    01:00 -9°C° 0 mm 2 mps 627 mmHg 72%
    02:00 -9°C° 0 mm 2 mps 627 mmHg 66%
    03:00 -9°C° 0 mm 2 mps 626 mmHg 59%
    04:00 -10°C° 0 mm 2 mps 626 mmHg 57%
    05:00 -10°C° 0 mm 2 mps 626 mmHg 54%
    06:00 -10°C° 0 mm 2 mps 625 mmHg 52%
    07:00 -8°C° 0 mm 2 mps 625 mmHg 50%
    08:00 -7°C° 0 mm 2 mps 626 mmHg 49%
    09:00 -6°C° 0 mm 2 mps 626 mmHg 48%
    10:00 -2°C° 0 mm 1 mps 626 mmHg 45%
    11:00 0°C° 0 mm 1 mps 626 mmHg 41%
    12:00 +2°C° 0 mm 1 mps 626 mmHg 38%
    13:00 +1°C° 0.3 mm 1 mps 625 mmHg 49%
    14:00 +1°C° 0.3 mm 1 mps 624 mmHg 59%
    15:00 0°C° 0.3 mm 1 mps 623 mmHg 70%
    16:00 -3°C° 0.6 mm 2 mps 623 mmHg 74%
    17:00 -5°C° 0.6 mm 3 mps 622 mmHg 78%
    18:00 -5°C° 0.6 mm 4 mps 622 mmHg 82%
    19:00 -6°C° 0.1 mm 3 mps 622 mmHg 83%
    20:00 -6°C° 0.1 mm 3 mps 621 mmHg 84%
    21:00 -6°C° 0.1 mm 2 mps 621 mmHg 85%
    22:00 -5°C° 0.3 mm 2 mps 621 mmHg 85%
    23:00 -5°C° 0.3 mm 2 mps 621 mmHg 85%

    Day after tomorrow, 23 January, Wednesday

    Time Temperature Precipitation Wind Pressure Humidity
    00:00 -6°C° 0.3 mm 3 mps 621 mmHg 85%
    01:00 -5°C° 0.6 mm 2 mps 620 mmHg 86%
    02:00 -5°C° 0.6 mm 2 mps 620 mmHg 86%
    03:00 -5°C° 0.6 mm 2 mps 620 mmHg 86%
    04:00 -5°C° 0.6 mm 2 mps 619 mmHg 88%
    05:00 -4°C° 0.6 mm 1 mps 618 mmHg 89%
    06:00 -4°C° 0.6 mm 1 mps 616 mmHg 91%
    07:00 -4°C° 1.7 mm 1 mps 616 mmHg 92%
    08:00 -4°C° 1.7 mm 1 mps 616 mmHg 93%
    09:00 -3°C° 1.7 mm 1 mps 616 mmHg 94%
    10:00 -6°C° 1.8 mm 2 mps 616 mmHg 93%
    11:00 -8°C° 1.8 mm 4 mps 616 mmHg 92%
    12:00 -8°C° 1.8 mm 5 mps 616 mmHg 91%
    13:00 -10°C° 0.7 mm 6 mps 616 mmHg 91%
    14:00 -11°C° 0.7 mm 7 mps 616 mmHg 90%
    15:00 -12°C° 0.7 mm 8 mps 616 mmHg 89%
    16:00 -12°C° 0.4 mm 8 mps 616 mmHg 90%
    17:00 -13°C° 0.4 mm 8 mps 616 mmHg 90%
    18:00 -13°C° 0.4 mm 7 mps 616 mmHg 90%
    19:00 -13°C° 1 mm 8 mps 617 mmHg 91%
    20:00 -14°C° 1 mm 9 mps 617 mmHg 92%
    21:00 -14°C° 1 mm 9 mps 618 mmHg 93%
    22:00 -13°C° 0.8 mm 8 mps 618 mmHg 93%
    23:00 -13°C° 0.8 mm 8 mps 619 mmHg 93%

    24 January, Thursday

    Time Temperature Precipitation Wind Pressure Humidity
    00:00 -14°C° 0.8 mm 7 mps 619 mmHg 93%
    01:00 -14°C° 0.3 mm 6 mps 619 mmHg 92%
    02:00 -14°C° 0.3 mm 6 mps 619 mmHg 91%
    03:00 -15°C° 0.3 mm 6 mps 619 mmHg 90%
    04:00 -15°C° 0.1 mm 6 mps 619 mmHg 89%
    05:00 -15°C° 0.1 mm 6 mps 619 mmHg 88%
    06:00 -15°C° 0.1 mm 7 mps 620 mmHg 88%
    07:00 -14°C° 0.1 mm 7 mps 620 mmHg 86%
    08:00 -14°C° 0.1 mm 7 mps 621 mmHg 85%
    09:00 -14°C° 0.1 mm 7 mps 622 mmHg 84%
    10:00 -13°C° 0.1 mm 7 mps 622 mmHg 83%
    11:00 -12°C° 0.1 mm 7 mps 623 mmHg 82%
    12:00 -10°C° 0.1 mm 6 mps 623 mmHg 81%
    13:00 -10°C° 0 mm 6 mps 624 mmHg 82%
    14:00 -10°C° 0 mm 6 mps 624 mmHg 83%
    15:00 -10°C° 0 mm 6 mps 624 mmHg 83%
    16:00 -11°C° 0 mm 5 mps 624 mmHg 85%
    17:00 -12°C° 0 mm 5 mps 624 mmHg 87%
    18:00 -13°C° 0 mm 5 mps 624 mmHg 88%
    19:00 -13°C° 0 mm 5 mps 625 mmHg 88%
    20:00 -14°C° 0 mm 5 mps 625 mmHg 87%
    21:00 -14°C° 0 mm 4 mps 626 mmHg 86%
    22:00 -15°C° 0 mm 4 mps 626 mmHg 84%
    23:00 -15°C° 0 mm 4 mps 626 mmHg 83%

    25 January, Friday

    Time Temperature Precipitation Wind Pressure Humidity
    00:00 -15°C° 0 mm 4 mps 626 mmHg 82%
    01:00 -16°C° 0 mm 4 mps 626 mmHg 79%
    02:00 -15°C° 0 mm 3 mps 625 mmHg 76%
    03:00 -15°C° 0 mm 3 mps 625 mmHg 74%
    04:00 -15°C° 0 mm 3 mps 625 mmHg 71%
    05:00 -15°C° 0 mm 3 mps 626 mmHg 69%
    06:00 -15°C° 0 mm 3 mps 626 mmHg 67%
    07:00 -13°C° 0 mm 3 mps 627 mmHg 66%
    08:00 -12°C° 0 mm 3 mps 628 mmHg 65%
    09:00 -9°C° 0 mm 3 mps 629 mmHg 65%
    10:00 -8°C° 0 mm 4 mps 629 mmHg 66%
    11:00 -5°C° 0 mm 4 mps 630 mmHg 68%
    12:00 -4°C° 0 mm 4 mps 630 mmHg 69%
    13:00 -4°C° 0 mm 4 mps 630 mmHg 73%
    14:00 -4°C° 0 mm 4 mps 630 mmHg 78%
    15:00 -3°C° 0 mm 4 mps 630 mmHg 82%
    16:00 -4°C° 0 mm 4 mps 630 mmHg 85%
    17:00 -5°C° 0 mm 3 mps 630 mmHg 88%
    18:00 -6°C° 0 mm 3 mps 630 mmHg 91%
    19:00 -5°C° 0.1 mm 3 mps 630 mmHg 91%
    20:00 -5°C° 0.1 mm 3 mps 631 mmHg 92%
    21:00 -4°C° 0.1 mm 3 mps 631 mmHg 92%
    22:00 -4°C° 0.1 mm 3 mps 631 mmHg 92%
    23:00 -4°C° 0.1 mm 3 mps 631 mmHg 92%

    26 January, Saturday

    Time Temperature Precipitation Wind Pressure Humidity
    00:00 -2°C° 0.1 mm 2 mps 631 mmHg 93%
    01:00 -3°C° 0 mm 2 mps 631 mmHg 93%
    02:00 -3°C° 0 mm 2 mps 631 mmHg 93%
    03:00 -3°C° 0 mm 2 mps 631 mmHg 93%
    04:00 -4°C° 0 mm 2 mps 630 mmHg 92%
    05:00 -4°C° 0 mm 2 mps 630 mmHg 91%
    06:00 -5°C° 0 mm 2 mps 629 mmHg 91%
    07:00 -4°C° 0 mm 2 mps 630 mmHg 89%
    08:00 -3°C° 0 mm 2 mps 630 mmHg 86%
    09:00 -1°C° 0 mm 2 mps 631 mmHg 84%
    10:00 +2°C° 0 mm 1 mps 631 mmHg 86%
    11:00 +3°C° 0 mm 1 mps 631 mmHg 87%
    12:00 +5°C° 0 mm 1 mps 631 mmHg 88%
    13:00 +4°C° 0 mm 1 mps 630 mmHg 89%
    14:00 +4°C° 0 mm 1 mps 630 mmHg 90%
    15:00 +4°C° 0 mm 1 mps 629 mmHg 92%
    16:00 +2°C° 0 mm 1 mps 629 mmHg 92%
    17:00 0°C° 0 mm 1 mps 628 mmHg 93%
    18:00 -1°C° 0 mm 1 mps 627 mmHg 94%
    19:00 -4°C° 0 mm 2 mps 627 mmHg 91%
    20:00 -4°C° 0 mm 2 mps 626 mmHg 88%
    21:00 -5°C° 0 mm 2 mps 626 mmHg 85%
    22:00 -4°C° 0 mm 2 mps 625 mmHg 86%
    23:00 -4°C° 0 mm 2 mps 625 mmHg 87%
    Show more